User: anonymous   Login
Location: Unspecified
(0.0000°N, 0.0000°E)
Time: 01:48:05
(UTC+00:00)
Language:

AIST 1 - Orbit

View from above orbital plane
View from above orbital plane
View from above satellite
View from above satellite

Ground track
Ground track

The orbit data is extracted from the following two-line orbital elements,

1 39492U 13078C   17325.51593082  .00000313  00000-0  31613-4 0  9992
2 39492  82.4214  32.1148 0018844 231.0958 128.8579 14.87659500211607
Epoch (UTC): 21 November 2017 12:22:56
Eccentricity: 0.0018844
inclination: 82.4214°
perigee height: 592 km
apogee height: 618 km
right ascension of ascending node: 32.1148°
argument of perigee: 231.0958°
revolutions per day: 14.87659500
mean anomaly at epoch: 128.8579°
orbit number at epoch: 21160

The dashed part of the orbit path shows where the satellite is in the earth's shadow,  

DLR